Topeka, KS

2:04 PM CDT on July 29, 2016 (GMT -0500)
Forbes

Weather History for KFOE - September, 2013

Change the Weather History Date:

Thursday, September 19, 2013

  Actual Average Record
Temperature  
Mean Temperature 80 °F -  
Max Temperature 93 °F 79 °F 96 °F (2000)
Min Temperature 68 °F 56 °F 35 °F (1991)
Cooling Degree Days 16    
Growing Degree Days 30 (Base 50)    
Moisture  
Dew Point 66 °F    
Average Humidity 74    
Maximum Humidity 94    
Minimum Humidity 39    
Precipitation  
Precipitation 0.16 in - - ()
Sea Level Pressure  
Sea Level Pressure 29.85 in    
Wind  
Wind Speed 12 mph (WSW)    
Max Wind Speed 26 mph    
Max Gust Speed 36 mph    
Visibility 9 miles    
Events Rain , Thunderstorm    
Averages and records for this station are not official NWS values.
T = Trace of Precipitation, MM = Missing Value Source: NWS Daily Summary

Daily Weather History Graph

Daily Weather History Graph

Search for Another Location

Airport or City:

Trip Planner

Search our weather history database for the weather conditions in past years. The results will help you decide how hot, cold, wet, or windy it might be!

Date:

Astronomy

Sep. 19, 2013 Rise Set
Actual Time 7:07 AM CDT 7:24 PM CDT
Civil Twilight 6:41 AM CDT 7:50 PM CDT
Nautical Twilight 6:09 AM CDT 8:21 PM CDT
Astronomical Twilight 5:38 AM CDT 8:53 PM CDT
Moon 7:23 PM CDT (9/19) 7:17 AM CDT (9/19)
Length of Visible Light 13h 09m
Length of Day
12h 16m
Full, 100% of the Moon is Illuminated
Sep 19
Full
Sep 26
Last Quarter
Oct 4
New
Oct 11
First Quarter
Oct 18
Full

Hourly Weather History & Observations

Time (CDT) Temp. Heat Index Dew Point Humidity Pressure Visibility Wind Dir Wind Speed Gust Speed Precip Events Conditions
12:53 AM 78.1 °F - 66.9 °F 68% 29.82 in 10.0 mi South 11.5 mph - N/A   Clear
1:53 AM 77.0 °F - 66.9 °F 71% 29.82 in 10.0 mi South 11.5 mph - N/A   Clear
2:53 AM 75.9 °F - 66.0 °F 71% 29.81 in 10.0 mi South 11.5 mph - N/A   Clear
3:53 AM 75.0 °F - 64.9 °F 71% 29.81 in 10.0 mi South 10.4 mph - N/A   Clear
4:53 AM 73.9 °F - 64.9 °F 73% 29.82 in 10.0 mi South 10.4 mph - N/A   Clear
5:53 AM 73.0 °F - 64.9 °F 76% 29.81 in 10.0 mi South 13.8 mph - N/A   Clear
6:53 AM 73.9 °F - 64.9 °F 73% 29.81 in 10.0 mi South 11.5 mph - N/A   Clear
7:53 AM 73.9 °F - 64.9 °F 73% 29.82 in 10.0 mi South 11.5 mph - N/A   Clear
8:53 AM 77.0 °F - 66.0 °F 69% 29.82 in 10.0 mi South 11.5 mph 23.0 mph N/A   Clear
9:53 AM 81.0 °F 83.0 °F 66.0 °F 60% 29.83 in 10.0 mi SSW 20.7 mph 26.5 mph N/A   Clear
10:53 AM 84.9 °F 87.1 °F 66.0 °F 53% 29.83 in 10.0 mi SSW 15.0 mph 26.5 mph N/A   Clear
11:53 AM 88.0 °F 90.3 °F 66.0 °F 48% 29.82 in 10.0 mi SSW 18.4 mph 28.8 mph N/A   Clear
12:53 PM 90.0 °F 92.8 °F 66.9 °F 46% 29.81 in 10.0 mi South 20.7 mph 28.8 mph N/A   Clear
1:53 PM 91.0 °F 93.8 °F 66.0 °F 44% 29.78 in 10.0 mi SSW 19.6 mph 28.8 mph N/A   Clear
2:53 PM 93.0 °F 95.0 °F 64.9 °F 39% 29.74 in 10.0 mi South 21.9 mph 29.9 mph N/A   Partly Cloudy
3:53 PM 90.0 °F 91.7 °F 64.9 °F 43% 29.71 in 10.0 mi SSW 21.9 mph 32.2 mph N/A   Partly Cloudy
4:53 PM 88.0 °F 89.6 °F 64.9 °F 46% 29.71 in 10.0 mi SW 13.8 mph 28.8 mph 0.00 in   Mostly Cloudy
5:21 PM 80.6 °F 83.2 °F 68.0 °F 65% 29.75 in 10.0 mi SW 9.2 mph - 0.00 in Rain , Thunderstorm Light Thunderstorms and Rain
5:45 PM 71.6 °F - 68.0 °F 88% 29.82 in 2.5 mi NW 26.5 mph 35.7 mph 0.06 in Rain , Thunderstorm Light Thunderstorms and Rain
5:53 PM 71.1 °F - 68.0 °F 90% 29.78 in 2.0 mi NNW 15.0 mph - 0.10 in Rain , Thunderstorm Light Thunderstorms and Rain
6:02 PM 71.6 °F - 69.8 °F 94% 29.81 in 4.0 mi NW 11.5 mph 31.1 mph 0.02 in Rain , Thunderstorm Light Thunderstorms and Rain
6:50 PM 71.6 °F - 68.0 °F 88% 29.84 in 10.0 mi North 12.7 mph - 0.04 in Rain , Thunderstorm Light Rain
6:53 PM 71.1 °F - 68.0 °F 90% 29.83 in 10.0 mi NNE 10.4 mph - 0.04 in Rain , Thunderstorm Light Rain
7:20 PM 69.8 °F - 66.2 °F 88% 29.89 in 10.0 mi NNE 6.9 mph - 0.00 in   Overcast
7:53 PM 70.0 °F - 64.9 °F 84% 29.90 in 10.0 mi NE 6.9 mph - 0.00 in Rain Light Rain
8:32 PM 69.8 °F - 64.4 °F 83% 29.94 in 10.0 mi NNE 4.6 mph - 0.01 in Rain , Thunderstorm Light Rain
8:53 PM 69.1 °F - 64.9 °F 87% 29.93 in 10.0 mi North 4.6 mph - 0.01 in Thunderstorm Overcast
9:03 PM 69.8 °F - 66.2 °F 88% 29.95 in 10.0 mi NNW 9.2 mph - 0.00 in Rain Light Rain
9:53 PM 68.0 °F - 66.0 °F 93% 29.93 in 10.0 mi Calm Calm - 0.01 in Rain Light Rain
10:21 PM 68.0 °F - 66.2 °F 94% 29.96 in 10.0 mi North 3.5 mph - 0.00 in   Overcast
10:53 PM 68.0 °F - 66.0 °F 93% 29.94 in 10.0 mi NW 4.6 mph - 0.00 in   Overcast
11:01 PM 68.0 °F - 66.2 °F 94% 29.97 in 10.0 mi West 6.9 mph - N/A   Overcast
11:16 PM 69.8 °F - 66.2 °F 88% 29.96 in 10.0 mi WNW 4.6 mph - N/A   Overcast
11:37 PM 68.0 °F - 64.4 °F 88% 29.97 in 10.0 mi NW 9.2 mph - N/A   Overcast
11:53 PM 68.0 °F - 64.0 °F 87% 29.93 in 10.0 mi NW 9.2 mph - N/A   Overcast